This is the latest recevied weather packets stored in our database for station/object KN6WGU. If no packets are shown the sender has not sent any weather packets the latest 10 day(s).
| Time | Temp. | Humidity | Pressure | Rain* | Wind** | Luminosity | Snow |
|---|---|---|---|---|---|---|---|
| 1778201850 | 9.44° C | 64% | 1005.7 hPa | 0 mm | - | 0 W/m² | - |
| 1778201546 | 9.44° C | 63% | 1005.5 hPa | 0 mm | - | 0 W/m² | - |
| 1778201241 | 10° C | 61% | 1005.8 hPa | 0 mm | - | 0 W/m² | - |
| 1778200938 | 10° C | 60% | 1005.7 hPa | 0 mm | - | 1 W/m² | - |
| 1778200635 | 10.56° C | 61% | 1005.7 hPa | 0 mm | - | 1 W/m² | - |
| 1778200332 | 10.56° C | 59% | 1005.6 hPa | 0 mm | - | 2 W/m² | - |
| 1778200028 | 11.11° C | 56% | 1005.5 hPa | 0 mm | - | 4 W/m² | - |
| 1778199726 | 11.11° C | 55% | 1005.7 hPa | 0 mm | - | 5 W/m² | - |
| 1778199421 | 11.67° C | 55% | 1005.6 hPa | 0 mm | - | 7 W/m² | - |
| 1778199117 | 11.67° C | 52% | 1005.4 hPa | 0 mm | - | 10 W/m² | - |
| 1778198814 | 11.67° C | 51% | 1005.5 hPa | 0 mm | - | 12 W/m² | - |
| 1778198511 | 12.22° C | 51% | 1005.3 hPa | 0 mm | - | 15 W/m² | - |
| 1778198208 | 12.22° C | 50% | 1005.5 hPa | 0 mm | - | 18 W/m² | - |
| 1778197905 | 12.22° C | 52% | 1005.5 hPa | 0 mm | - | 20 W/m² | - |
| 1778197602 | 12.22° C | 52% | 1005.4 hPa | 0 mm | - | 23 W/m² | - |
| 1778197293 | 12.78° C | 50% | 1005.4 hPa | 0 mm | - | 24 W/m² | - |
| 1778196990 | 12.78° C | 49% | 1005.5 hPa | 0 mm | - | 27 W/m² | - |
| 1778196689 | 12.78° C | 47% | 1005.6 hPa | 0 mm | - | 30 W/m² | - |
| 1778196384 | 13.33° C | 47% | 1005.4 hPa | 0 mm | - | 34 W/m² | - |
| 1778196082 | 13.89° C | 48% | 1005.4 hPa | 0 mm | - | 54 W/m² | - |
| 1778195778 | 13.89° C | 47% | 1005.6 hPa | 0 mm | - | 67 W/m² | - |
| 1778195476 | 13.89° C | 46% | 1005.5 hPa | 0 mm | - | 76 W/m² | - |
| 1778195172 | 14.44° C | 48% | 1005.7 hPa | 0 mm | - | 88 W/m² | - |
| 1778194868 | 13.89° C | 49% | 1005.7 hPa | 0 mm | - | 99 W/m² | - |
| 1778194562 | 14.44° C | 48% | 1005.9 hPa | 0 mm | - | 111 W/m² | - |
* Rain latest hour (hover to see other rain measurements)
** Current wind speed in m/s (hover to see current wind gust speed)